Weather in Voznesenskoye

Russia / Perm Krai     58°09′24″N   54°37′35″E
temp.,
°C
wind,
m/s
gust,
m/s
humid.,
%
clouds,
%
prec.,
mm/h
press.,
hPa
HPBL,
m
3 march, wed
wed323:00−3sw489799 1.1 994275
02:00−4w3697100 0.3 993199
05:00−8w349661 0.4 99486
08:00−10w359616 0.0 99595
11:00−6w359448 0.0 996264
14:00−2w358993 0.0 996578
17:00−2w349496 0.4 997433
20:00−5wnw2297100 0.5 99747
4 march, thu
thu423:00−8wnw259499 0.9 997128
02:00−12w349684 0.0 99677
05:00−11wsw389588 0.0 997200
08:00−14sw369783 0.0 996110
11:00−9sw479292 0.1 995390
14:00−6ssw4694100 0.4 994494
17:00−5ssw4890100 0.6 993597
20:00−6sse3995100 0.3 991355
5 march, fri
fri523:00−7se2297100 0.4 99159
02:00−8nnw129796 0.1 99221
05:00−10nw239695 0.1 99560
08:00−12nw239499 0.0 99753
11:00−10wnw249395 0.1 999252
14:00−7w238699 0.1 1000563
17:00−7w248899 0.3 1001490
20:00−11nw359599 0.2 1002132
6 march, sat
sat623:00−16nw339578 0.2 100454
02:00−18wnw339759 0.0 100649
05:00−19w339761 0.0 100875
08:00−20w359779 0.0 101094
11:00−16w359050 0.0 1010268
14:00−11sw258527 0.0 1009446
17:00−9sw368959 0.1 1007732
20:00−11wsw2795100 0.5 1007302
7 march, sun
sun723:00−13wnw3795100 0.7 1008252
02:00−19wnw349895 0.0 100769
05:00−23wnw239769 0.0 100821
08:00−24wsw22970 0.0 100820
11:00−18sw349118 0.0 1009247
14:00−13sw468699 0.1 1009737
17:00−11sw478599 0.1 1008904
20:00−14s3895100 0.1 1007221